[[{"header":{"parameterUnit":"m.s-1","parameterCategory":1,"la1":30.2991,"la2":30.254,"lo1":-89.0895,"lo2":-89.0444,"dy":0.0017,"dx":0.0017,"nx":28,"ny":28,"refTime":"2023-09-26T03:00:00:Z","depth":0,"parameterNumber":2,"parameterNumberName":"U-component_of_WINDS"},"data":[0,0,0,0,0,0,0,0,0,0,0,0,0,0,0,0,0,0,0,0,0,0,0,0,0,0,0,0,0,0,0,0,0,0,0,0,0,0,0,0,0,0,0,0,0,0,0,0,0,0,0,0,0,0,0,0,0,0,-4.8579,-4.8581,0,-4.87,-4.8701,-4.8702,-4.8615,-4.8611,-4.8607,-4.8604,-4.873,-4.8737,-4.8744,0,0,0,0,0,0,0,0,0,0,0,0,0,-4.8277,-4.8283,-4.8579,-4.8581,-4.8582,-4.8699,-4.8701,-4.8703,-4.8616,-4.8611,-4.8606,-4.8602,-4.8728,-4.8736,-4.8745,0,0,0,0,0,0,0,0,0,0,0,0,0,-4.8404,-4.8285,-4.8579,-4.8553,-4.8552,-4.8699,-4.8701,-4.8703,-4.8617,-4.8611,-4.8605,-4.86,-4.8725,-4.8735,-4.8746,-4.8926,0,0,-4.8778,-4.8782,0,0,0,0,0,0,0,0,-4.8397,-4.8415,-4.8555,-4.8555,-4.8554,-4.8636,-4.8641,-4.8778,-4.8618,-4.8592,-4.8603,-4.8597,-4.8704,-4.8716,-4.8751,-4.8932,-4.8938,-4.8779,-4.8785,-4.8789,-4.8792,0,0,0,0,0,0,0,-4.8388,-4.841,-4.8627,-4.8557,-4.8557,-4.8536,-4.8548,-4.8666,-4.8679,-4.8594,-4.8588,-4.8603,-4.8702,-4.8741,-4.8753,-4.8939,-4.8778,-4.8788,-4.8794,-4.8798,-4.9274,-4.928,0,0,0,0,0,0,-4.8382,-4.8403,-4.8623,-4.863,-4.8459,-4.8546,-4.8559,-4.8616,-4.8678,-4.8681,-4.8608,-4.8599,-4.8726,-4.8741,-4.8758,-4.8972,-4.8789,-4.8799,-4.8805,-4.9268,-4.9275,-4.9282,0,0,0,0,0,0,-4.8375,-4.8402,-4.8618,-4.8515,-4.8541,-4.8558,-4.8622,-4.8621,-4.866,-4.8688,-4.869,-4.8645,-4.8722,-4.8743,-4.8884,-4.8975,-4.8804,-4.8813,-4.926,-4.927,-4.9279,-4.9403,0,0,0,0,0,0,-4.8367,-4.84,-4.8468,-4.8517,-4.8547,-4.8743,-4.8627,-4.8628,-4.8678,-4.8667,-4.8723,-4.8727,-4.8719,-4.8869,-4.8895,-4.8986,-4.8822,-4.9252,-4.9265,-4.9276,-4.9391,-4.9415,-4.9437,0,0,0,0,0,-4.8357,-4.8499,-4.8472,-4.8499,-4.8632,-4.8748,-4.8765,-4.8752,-4.8685,-4.8754,-4.8772,-4.8726,-4.8962,-4.8885,-4.8913,-4.9009,-4.9246,-4.9261,-4.9275,-4.938,-4.9411,-4.9436,0,0,0,0,0,0,-4.8462,-4.8505,-4.8476,-4.8638,-4.869,-4.8733,-4.8819,-4.8784,-4.8857,-4.8843,-4.8825,-4.8839,-4.8987,-4.9012,-4.8926,-4.9186,-4.9093,-4.9114,-4.9164,-4.9193,-4.9215,-4.9206,-4.883,0,0,0,0,0,-4.8504,-4.8593,-4.8627,-4.8767,-4.8794,-4.8803,-4.8853,-4.8838,-4.8891,-4.8913,-4.8941,-4.8996,-4.9082,-4.9139,-4.922,-4.9395,-4.9405,-4.9475,-4.9497,-4.9516,-4.9534,-4.9627,-4.9658,-4.9329,-4.9329,-4.9329,0,0,-4.8592,-4.8626,-4.8684,-4.8789,-4.8827,-4.8921,-4.8822,-4.8925,-4.8994,-4.8929,-4.9063,-4.9087,-4.9146,-4.9305,-4.9376,-4.9331,-4.9627,-4.9534,-4.9549,-4.9557,-4.9645,-4.9676,-4.9704,-4.9339,-4.9337,-4.9336,0,0,-4.8799,-4.8835,-4.8955,-4.8995,-4.9054,-4.9058,-4.9088,-4.9136,-4.9149,-4.9283,-4.9236,-4.9319,-4.9468,-4.9512,-4.9554,-4.9779,-4.9738,-4.9806,-4.9925,-5.0016,-5.0042,-5.0065,-5.0144,-5.0173,-4.9824,-4.9824,-4.9824,0,-4.8901,-4.9039,-4.9021,-4.9128,-4.9176,-4.912,-4.9241,-4.9282,-4.9365,-4.9399,-4.9347,-4.9532,-4.9569,-4.9736,-4.9791,-4.9827,-4.986,-4.9798,-5.004,-5.0063,-5.0084,-5.0159,-5.0189,-4.9832,-4.9831,-4.983,-4.9829,0,-4.9161,-4.9257,-4.9348,-4.9427,-4.9485,-4.9599,-4.96,-4.9661,-4.9642,-4.9652,-4.979,-4.9832,-4.992,-4.9959,-4.9942,-5.0125,-5.0094,-5.0042,-4.9948,-5.0123,-5.0193,-5.0222,-4.9843,-4.984,-4.9838,-4.9836,0,0,-4.9436,-4.9505,-4.9538,-4.9573,-4.9635,-4.9709,-4.9821,-4.9906,-4.9958,-5.0018,-5.0111,-5.0239,-5.019,-5.0238,-5.0225,-5.0306,-5.048,-5.0243,-5.0244,-5.0284,-5.0683,-5.072,-5.0754,-5.0454,-5.0459,-5.0464,-5.0677,0,-4.9645,-4.9838,-4.9826,-5.0008,-5.0097,-5.0045,-5.0143,-5.0191,-5.0205,-5.0283,-5.0298,-5.0388,-5.0317,-5.0346,-5.0423,-5.0442,-5.0559,-5.0427,-5.054,-5.0544,-5.0525,-5.0791,-5.0832,-5.1031,-5.0704,-5.0709,-5.0713,0,-4.9915,-4.9982,-5.0172,-5.0219,-5.0256,-5.0344,-5.042,-5.0496,-5.055,-5.0554,-5.0608,-5.0582,-5.0695,-5.06,-5.0756,-5.0667,-5.0713,-5.0729,-5.0737,-5.0745,-5.0638,-5.0805,-5.1094,-5.1123,-5.0756,-5.0752,-5.0749,0,-5.0094,-5.0233,-5.0364,-5.0396,-5.0455,-5.0518,-5.0546,-5.0594,-5.0646,-5.0714,-5.0747,-5.0828,-5.0872,-5.0936,-5.0933,-5.0863,-5.1091,-5.0995,-5.1097,-5.1098,-5.1146,-5.1143,-5.1444,-5.1179,-5.1179,-5.1178,-5.1177,0,-5.0328,-5.0446,-5.0446,-5.0526,-5.0657,-5.0643,-5.0774,-5.0795,-5.0839,-5.0923,-5.0885,-5.0965,-5.0957,-5.1039,-5.1038,-5.1167,-5.1188,-5.1194,-5.1192,-5.1196,-5.1195,-5.1225,-5.121,-5.1186,-5.1184,-5.1183,-5.1181,0,-5.055,-5.0555,-5.0694,-5.0738,-5.0752,-5.0847,-5.0885,-5.0962,-5.0972,-5.1079,-5.1104,-5.112,-5.1214,-5.1218,-5.1327,-5.1326,-5.1483,-5.1466,-5.1464,-5.146,-5.1561,-5.1551,-5.1891,-5.1934,-5.1642,-5.1645,-5.1647,0,-5.0698,-5.0787,-5.0841,-5.0894,-5.0925,-5.1011,-5.1064,-5.1054,-5.111,-5.1179,-5.1248,-5.1338,-5.1409,-5.1561,-5.1584,-5.1666,-5.165,-5.1764,-5.1663,-5.1664,-5.165,-5.1644,-5.1653,-5.1783,-5.1786,-5.1789,-5.1791,0,-5.0959,-5.0957,-5.1033,-5.111,-5.1173,-5.1234,-5.1291,-5.1337,-5.1334,-5.1399,-5.1494,-5.1549,-5.1659,-5.1749,-5.1829,-5.1859,-5.1825,-5.1823,-5.1851,-5.1855,-5.1849,-5.1852,-5.1516,-5.1815,-5.1813,-5.1811,-5.181,-5.1809,-5.1147,-5.1224,-5.1273,-5.1359,-5.14,-5.1454,-5.1528,-5.1547,-5.1626,-5.1713,-5.1704,-5.1809,-5.1862,-5.1966,-5.2002,-5.2085,-5.2046,-5.2086,-5.2096,-5.2106,-5.2116,-5.1838,-5.21,-5.2099,-5.2099,-5.2098,-5.2098,0,-5.1404,-5.1434,-5.1513,-5.1592,-5.1661,-5.1622,-5.1683,-5.1743,-5.1835,-5.1887,-5.1957,-5.2066,-5.2153,-5.2183,-5.2267,-5.2328,-5.2315,-5.235,-5.2345,-5.2352,-5.2147,-5.2113,-5.236,-5.236,-5.236,-5.236,-5.236,-5.2359,-5.1546,-5.1673,-5.1677,-5.1825,-5.1854,-5.1955,-5.1993,-5.2043,-5.2083,-5.2206,-5.2278,-5.2296,-5.2339,-5.2427,-5.2505,-5.2511,-5.2544,-5.2586,-5.2586,-5.2393,-5.2367,-5.2341,-5.231,-5.2594,-5.2594,-5.2784,-5.2786,-5.2787]},{"header":{"parameterUnit":"m.s-1","parameterCategory":1,"la1":30.2991,"la2":30.254,"lo1":-89.0895,"lo2":-89.0444,"dy":0.0017,"dx":0.0017,"nx":28,"ny":28,"refTime":"2023-09-26T03:00:00:Z","depth":0,"parameterNumber":3,"parameterNumberName":"V-component_of_WINDS"},"data":[0,0,0,0,0,0,0,0,0,0,0,0,0,0,0,0,0,0,0,0,0,0,0,0,0,0,0,0,0,0,0,0,0,0,0,0,0,0,0,0,0,0,0,0,0,0,0,0,0,0,0,0,0,0,0,0,0,0,2.0735,2.0735,0,2.0733,2.0733,2.0733,2.0748,2.0748,2.0748,2.0749,2.0741,2.0741,2.074,0,0,0,0,0,0,0,0,0,0,0,0,0,2.075,2.0749,2.0735,2.0735,2.0735,2.0733,2.0733,2.0733,2.0748,2.0748,2.0749,2.0749,2.0742,2.0741,2.074,0,0,0,0,0,0,0,0,0,0,0,0,0,2.0745,2.0749,2.0735,2.0742,2.0743,2.0733,2.0733,2.0733,2.0747,2.0748,2.0749,2.0749,2.0742,2.0741,2.074,2.0721,0,0,2.0737,2.0737,0,0,0,0,0,0,0,0,2.0745,2.0744,2.0741,2.0742,2.0743,2.0741,2.0735,2.0729,2.0747,2.0746,2.0749,2.075,2.0741,2.074,2.0738,2.0721,2.0721,2.0737,2.0737,2.0736,2.0736,0,0,0,0,0,0,0,2.0745,2.0744,2.0734,2.0741,2.0742,2.0745,2.0745,2.0734,2.0739,2.0746,2.0747,2.0747,2.0741,2.0739,2.0738,2.072,2.0737,2.0736,2.0736,2.0736,2.0689,2.0688,0,0,0,0,0,0,2.0745,2.0745,2.0734,2.0734,2.0746,2.0744,2.0744,2.0741,2.0739,2.074,2.0746,2.0747,2.074,2.0739,2.0737,2.0715,2.0736,2.0735,2.0735,2.0689,2.0689,2.0688,0,0,0,0,0,0,2.0746,2.0744,2.0734,2.074,2.0739,2.0743,2.0739,2.0741,2.0738,2.074,2.074,2.0743,2.074,2.0739,2.0726,2.0715,2.0735,2.0734,2.069,2.0689,2.0688,2.0671,0,0,0,0,0,0,2.0746,2.0744,2.0738,2.074,2.0738,2.0723,2.0739,2.074,2.0737,2.0739,2.0737,2.0737,2.0741,2.0727,2.0725,2.0714,2.0734,2.0691,2.069,2.0689,2.0672,2.0669,2.0667,0,0,0,0,0,2.0746,2.0732,2.0737,2.0736,2.073,2.0723,2.0722,2.0728,2.0736,2.0729,2.0731,2.0737,2.0717,2.0725,2.0723,2.0712,2.0692,2.069,2.0689,2.0673,2.067,2.0667,0,0,0,0,0,0,2.0727,2.0732,2.0738,2.0724,2.0723,2.0725,2.0717,2.0724,2.0719,2.072,2.0727,2.0726,2.0712,2.0711,2.072,2.0694,2.0706,2.0704,2.0695,2.0692,2.0689,2.0689,2.0733,0,0,0,0,0,2.0721,2.0716,2.072,2.0707,2.0707,2.0712,2.0709,2.0714,2.0712,2.0711,2.0711,2.0709,2.0702,2.0697,2.0691,2.0673,2.0672,2.0664,2.0662,2.0659,2.0657,2.0647,2.0644,2.0683,2.0683,2.0683,0,0,2.0708,2.0711,2.0706,2.0703,2.0703,2.0696,2.0711,2.0703,2.0698,2.0709,2.0697,2.0698,2.0695,2.068,2.0673,2.0678,2.0646,2.0657,2.0656,2.0654,2.0645,2.0642,2.0638,2.0682,2.0682,2.0682,0,0,2.0682,2.0684,2.0673,2.0673,2.0674,2.0678,2.0675,2.0677,2.0678,2.0667,2.0676,2.0669,2.0657,2.0655,2.0652,2.0627,2.0633,2.0625,2.061,2.0601,2.0598,2.0595,2.0585,2.0582,2.0623,2.0623,2.0623,0,2.0665,2.0657,2.0666,2.0658,2.0656,2.0669,2.0658,2.0657,2.0655,2.0653,2.066,2.0646,2.0645,2.063,2.0624,2.0621,2.0618,2.0624,2.0598,2.0595,2.0593,2.0583,2.058,2.0622,2.0622,2.0622,2.0622,0,2.0637,2.0631,2.0622,2.0621,2.0619,2.0609,2.0616,2.0612,2.0618,2.0621,2.0609,2.0609,2.0603,2.06,2.0605,2.0586,2.0589,2.0597,2.0608,2.0588,2.0579,2.0576,2.0621,2.0621,2.0621,2.0622,0,0,2.0595,2.0602,2.0598,2.0598,2.0601,2.0596,2.0587,2.0583,2.0579,2.0578,2.057,2.0561,2.0569,2.0566,2.057,2.0563,2.0542,2.0571,2.0571,2.0565,2.0521,2.0514,2.0509,2.0547,2.0547,2.0546,2.052,0,2.0568,2.0555,2.0564,2.0548,2.0542,2.0555,2.0548,2.0548,2.0551,2.0546,2.0549,2.0542,2.0553,2.0551,2.0545,2.0546,2.0533,2.0549,2.0538,2.0538,2.0537,2.0505,2.0497,2.0473,2.0517,2.0517,2.0516,0,2.0535,2.0534,2.0518,2.0523,2.0521,2.0514,2.0511,2.0507,2.0507,2.051,2.0508,2.0516,2.0506,2.0519,2.0506,2.0517,2.0513,2.0514,2.0513,2.0511,2.0524,2.0501,2.0465,2.0461,2.0511,2.0512,2.0512,0,2.0505,2.05,2.049,2.049,2.0495,2.049,2.0492,2.0493,2.0491,2.0489,2.0487,2.0483,2.0481,2.0478,2.0483,2.0493,2.0469,2.0483,2.047,2.047,2.0463,2.0463,2.0425,2.0463,2.0463,2.0463,2.0464,0,2.0474,2.0463,2.0477,2.047,2.0459,2.047,2.0458,2.0461,2.0463,2.0456,2.0468,2.0461,2.047,2.0465,2.0469,2.0458,2.0456,2.0458,2.0459,2.0456,2.0455,2.0452,2.0453,2.0463,2.0463,2.0463,2.0463,0,2.0437,2.0446,2.0436,2.0443,2.0445,2.0436,2.0441,2.0435,2.044,2.0432,2.0431,2.0438,2.0432,2.0439,2.0433,2.0436,2.042,2.0424,2.042,2.042,2.0407,2.0408,2.0364,2.0359,2.0402,2.0402,2.0401,0,2.0416,2.0408,2.0415,2.0413,2.0414,2.041,2.0408,2.0419,2.0416,2.0418,2.0411,2.0407,2.0404,2.0394,2.0397,2.0393,2.0396,2.0382,2.0396,2.0393,2.0395,2.0395,2.0393,2.0378,2.0378,2.0377,2.0377,0,2.0376,2.0382,2.0379,2.0379,2.0377,2.0377,2.0377,2.0374,2.0385,2.0382,2.0377,2.0375,2.0371,2.0365,2.0363,2.0364,2.0371,2.0373,2.037,2.0365,2.0363,2.0363,2.041,2.0373,2.0374,2.0374,2.0374,2.0374,2.0346,2.034,2.0344,2.0341,2.0344,2.0344,2.0339,2.0344,2.0341,2.0339,2.0346,2.0339,2.0341,2.0339,2.0339,2.0333,2.0339,2.0334,2.0333,2.0331,2.0329,2.0366,2.0333,2.0333,2.0333,2.0333,2.0333,0,2.0306,2.031,2.0308,2.0309,2.0307,2.0317,2.0319,2.0316,2.031,2.0312,2.031,2.0304,2.03,2.0305,2.0302,2.0296,2.03,2.0295,2.0294,2.0294,2.0324,2.0327,2.0292,2.0292,2.0292,2.0292,2.0292,2.0292,2.0285,2.0275,2.0281,2.0273,2.0277,2.0272,2.0272,2.0273,2.0274,2.0268,2.0266,2.027,2.0272,2.027,2.0266,2.0268,2.0265,2.0259,2.0261,2.0288,2.0292,2.0296,2.0298,2.0258,2.0258,2.0232,2.0231,2.0231]}]]